Flag for Germany Weather past 2 weeks in Sonneberg, Thuringia, Germany

Now
37 °F

Light rain. Low clouds.


Feels Like: 32 °F
Forecast: 26 / 50 °F
Wind: 6 mph from North

Location: Hof

Current Time: Apr 28, 2015 at 12:44:25 PM

Latest Report: Apr 28, 2015 at 12:00 PM


Visibility: 3 mi

Pressure: 29.93 "Hg

Humidity: 97%

Dew point: 36 °F

Location of SonnebergLocation

Historic Weather in Sonneberg — Graph

°F

Sonneberg temperature yesterday

Maximum temperature yesterday: 67 °F (at 2:00 PM)
Minimum temperature yesterday: 44 °F (at 10:00 PM)
Average temperature yesterday: 53 °F

Past Weeks' High & Low Weather Summary

 TemperatureHumidityPressure
High69 °F (Apr 15, 6:00 PM)100% (Apr 23, 2:00 AM)30.48 "Hg (Apr 23, 2:00 AM)
Low27 °F (Apr 19, 6:00 AM)25% (Apr 21, 6:00 PM)29.50 "Hg (Apr 27, 2:00 PM)
Average48 °F68%30.07 "Hg
* Reported Apr 13 12:00 Noon — Apr 28 11:00 AM, Sonneberg, Weather by CustomWeather, © 2015

Note: Actual official high and low records may vary slightly from our data, if they occured in-between our weather recording intervals... More about our weather records

Advertising

Sonneberg weather history for previous 24 hours

 ConditionsComfort  
Time TempWeatherWind HumidityBarometerVisibility
11:00 AM
Tue, Apr 28
36 °FLight rain. Low clouds.6 mph98%29.90 "Hg4 mi
10:00 AM34 °FLight snow. Low clouds.6 mph98%29.88 "Hg2 mi
9:00 AM33 °FLight snow. Low clouds.5 mph100%29.85 "Hg3 mi
8:00 AM33 °FDrizzle. Low clouds.5 mph100%29.83 "Hg2 mi
7:00 AM37 °FRain. Low clouds.6 mph98%29.78 "Hg3 mi
6:00 AM38 °FRain. Low clouds.7 mph98%29.75 "Hg4 mi
4:00 AM40 °FLight rain. Low clouds.6 mph100%29.74 "Hg2 mi
3:00 AM40 °FLow clouds.6 mph100%29.72 "Hg2 mi
2:00 AM41 °FLow clouds.7 mph100%29.71 "Hg2 mi
1:00 AM42 °FDrizzle. Low clouds.6 mph100%29.70 "Hg2 mi
12:00 AM43 °FLow clouds.6 mph100%29.70 "Hg2 mi
10:00 PM
Mon, Apr 27
44 °FDrizzle. Low clouds.7 mph100%29.68 "Hg0 mi
9:00 PM45 °FFog.7 mph100%29.66 "Hg0 mi
8:00 PM47 °FLight rain. Low clouds.7 mph100%29.63 "Hg1 mi
7:00 PM48 °FLight rain. Low clouds.6 mph100%29.63 "Hg4 mi
6:00 PM50 °FLight rain. Overcast.5 mph97%29.62 "Hg7 mi
4:00 PM58 °FThunderstorms. Overcast.5 mph87%29.56 "Hg9 mi
3:00 PM61 °FOvercast.6 mph72%29.54 "Hg31 mi
2:00 PM67 °FPartly sunny.1 mph52%29.50 "Hg31 mi
1:00 PM66 °FScattered clouds.2 mph54%29.53 "Hg31 mi
12:00 PM64 °FScattered clouds.2 mph60%29.55 "Hg31 mi
Weather by CustomWeather, © 2015

See weather overviewHow to use our weather pages